Terug naar catalogus

ONEWEB-0126

ActiefCommunicatiePO
NORAD 47272·PAYLOAD·🇬🇧 United Kingdom

Gelanceerd Dec 18, 2020 vanaf Vostochny Cosmodrome

Loading…

Volgende Passages (komende 24 uur)

TLE

VersSource: CelesTrak SupGP

Epoch: Sep 14, 2026, 18:52 UTC

1 47272C 20100Q   26257.78663612 -.00002093  00000+0 -58263-2 0  2574
2 47272  87.8978 332.8813 0001772 101.8257 319.1079 13.12443050    14

Volg ONEWEB-0126 in realtime met AllMySat

Download on the App Store